Time,TemperatureF,DewpointF,PressureIn,WindDirection,WindDirectionDegrees,WindSpeedMPH,WindSpeedGustMPH,Humidity,HourlyPrecipIn,Conditions,Clouds,dailyrainin,SoftwareType,DateUTC
2013-05-13 15:10:00,58.2,25.0,30.40,NW,315,0.0,0.0,28,0.00,,,0.00,WUHU216HW,2013-05-13 19:10:00,
2013-05-13 15:15:00,58.2,24.1,30.40,West,270,0.0,0.4,27,0.00,,,0.00,WUHU216HW,2013-05-13 19:15:00,
2013-05-13 15:20:00,58.8,24.6,30.40,NW,315,0.0,5.3,27,0.00,,,0.00,WUHU216HW,2013-05-13 19:20:00,
2013-05-13 15:25:00,59.0,25.7,30.40,NW,315,5.1,5.3,28,0.00,,,0.00,WUHU216HW,2013-05-13 19:25:00,
2013-05-13 15:30:00,58.8,25.5,30.39,NW,315,7.1,7.1,28,0.00,,,0.00,WUHU216HW,2013-05-13 19:30:00,
2013-05-13 15:35:00,58.8,26.5,30.39,NW,315,6.4,7.1,29,0.00,,,0.00,WUHU216HW,2013-05-13 19:35:00,
2013-05-13 15:40:00,58.6,25.4,30.39,NW,315,0.0,7.1,28,0.00,,,0.00,WUHU216HW,2013-05-13 19:40:00,
2013-05-13 15:45:00,58.4,25.2,30.40,NW,315,3.8,6.4,28,0.00,,,0.00,WUHU216HW,2013-05-13 19:45:00,
2013-05-13 15:50:00,58.1,25.8,30.40,NW,315,9.8,9.8,29,0.00,,,0.00,WUHU216HW,2013-05-13 19:50:00,
2013-05-13 15:55:00,57.0,24.9,30.40,NW,315,2.9,9.8,29,0.00,,,0.00,WUHU216HW,2013-05-13 19:55:00,
2013-05-13 16:00:00,56.6,25.5,30.40,NW,315,2.9,7.6,30,0.00,,,0.00,WUHU216HW,2013-05-13 20:00:00,
2013-05-13 16:05:00,56.4,25.4,30.40,NW,315,7.8,7.8,30,0.00,,,0.00,WUHU216HW,2013-05-13 20:05:00,
2013-05-13 16:10:00,56.6,25.5,30.39,NW,315,9.3,9.3,30,0.00,,,0.00,WUHU216HW,2013-05-13 20:10:00,
2013-05-13 16:15:00,56.8,25.7,30.39,WNW,293,8.2,9.3,30,0.00,,,0.00,WUHU216HW,2013-05-13 20:15:00,
2013-05-13 16:20:00,56.8,25.7,30.39,NW,315,10.5,10.5,30,0.00,,,0.00,WUHU216HW,2013-05-13 20:20:00,
2013-05-13 16:25:00,56.4,25.4,30.40,NNW,338,6.0,10.5,30,0.00,,,0.00,WUHU216HW,2013-05-13 20:25:00,
2013-05-13 16:30:00,56.4,25.4,30.39,NW,315,6.9,8.2,30,0.00,,,0.00,WUHU216HW,2013-05-13 20:30:00,
2013-05-13 16:35:00,56.6,25.5,30.39,NW,315,0.0,6.9,30,0.00,,,0.00,WUHU216HW,2013-05-13 20:35:00,
2013-05-13 16:40:00,56.8,25.7,30.39,NW,315,7.6,7.6,30,0.00,,,0.00,WUHU216HW,2013-05-13 20:40:00,
2013-05-13 16:45:00,56.6,25.5,30.39,NW,315,0.0,7.6,30,0.00,,,0.00,WUHU216HW,2013-05-13 20:45:00,
2013-05-13 16:50:00,56.3,25.2,30.39,NNW,338,0.0,7.6,30,0.00,,,0.00,WUHU216HW,2013-05-13 20:50:00,
2013-05-13 16:55:00,55.9,24.9,30.39,NW,315,3.8,7.3,30,0.00,,,0.00,WUHU216HW,2013-05-13 20:55:00,
2013-05-13 17:00:00,55.7,24.7,30.39,NW,315,3.8,3.8,30,0.00,,,0.00,WUHU216HW,2013-05-13 21:00:00,
2013-05-13 17:05:00,55.9,24.9,30.39,NW,315,7.6,7.6,30,0.00,,,0.00,WUHU216HW,2013-05-13 21:05:00,
2013-05-13 17:10:00,56.1,24.1,30.39,NW,315,7.1,7.6,29,0.00,,,0.00,WUHU216HW,2013-05-13 21:10:00,
2013-05-13 17:15:00,56.1,24.1,30.39,NW,315,0.0,7.1,29,0.00,,,0.00,WUHU216HW,2013-05-13 21:15:00,
2013-05-13 17:20:00,56.4,24.4,30.39,WSW,248,0.0,7.1,29,0.00,,,0.00,WUHU216HW,2013-05-13 21:20:00,
2013-05-13 17:25:00,56.8,23.8,30.38,West,270,0.0,3.8,28,0.00,,,0.00,WUHU216HW,2013-05-13 21:25:00,
2013-05-13 17:30:00,56.8,23.8,30.38,North,0,0.0,3.3,28,0.00,,,0.00,WUHU216HW,2013-05-13 21:30:00,
2013-05-13 17:35:00,56.8,23.8,30.38,NW,315,4.2,4.2,28,0.00,,,0.00,WUHU216HW,2013-05-13 21:35:00,
2013-05-13 17:40:00,56.8,22.8,30.39,NW,315,0.0,4.2,27,0.00,,,0.00,WUHU216HW,2013-05-13 21:40:00,
2013-05-13 17:45:00,56.8,22.8,30.38,NW,315,0.0,0.0,27,0.00,,,0.00,WUHU216HW,2013-05-13 21:45:00,
2013-05-13 17:50:00,56.4,23.5,30.38,WNW,293,0.0,4.4,28,0.00,,,0.00,WUHU216HW,2013-05-13 21:50:00,
2013-05-13 17:55:00,56.3,23.3,30.38,WNW,293,0.0,4.4,28,0.00,,,0.00,WUHU216HW,2013-05-13 21:55:00,
2013-05-13 18:00:00,56.3,23.3,30.38,WNW,293,0.0,0.0,28,0.00,,,0.00,WUHU216HW,2013-05-13 22:00:00,
2013-05-13 18:05:00,56.1,24.1,30.38,NNW,338,6.4,6.4,29,0.00,,,0.00,WUHU216HW,2013-05-13 22:05:00,
2013-05-13 18:10:00,56.3,23.3,30.38,NW,315,8.0,8.0,28,0.00,,,0.00,WUHU216HW,2013-05-13 22:10:00,
2013-05-13 18:15:00,56.3,23.3,30.38,NW,315,0.0,8.0,28,0.00,,,0.00,WUHU216HW,2013-05-13 22:15:00,
2013-05-13 18:20:00,56.1,23.1,30.38,WNW,293,6.9,8.0,28,0.00,,,0.00,WUHU216HW,2013-05-13 22:20:00,
2013-05-13 18:25:00,55.9,23.9,30.39,NW,315,3.8,6.9,29,0.00,,,0.00,WUHU216HW,2013-05-13 22:25:00,
2013-05-13 18:30:00,55.7,22.8,30.38,West,270,0.0,6.2,28,0.00,,,0.00,WUHU216HW,2013-05-13 22:30:00,
2013-05-13 18:35:00,55.7,23.8,30.38,NNW,338,0.0,3.8,29,0.00,,,0.00,WUHU216HW,2013-05-13 22:35:00,
2013-05-13 18:40:00,55.7,23.8,30.39,NW,315,6.9,6.9,29,0.00,,,0.00,WUHU216HW,2013-05-13 22:40:00,
2013-05-13 18:45:00,55.7,23.8,30.39,NNW,338,6.0,6.9,29,0.00,,,0.00,WUHU216HW,2013-05-13 22:45:00,
2013-05-13 18:50:00,55.5,23.6,30.39,West,270,6.4,6.9,29,0.00,,,0.00,WUHU216HW,2013-05-13 22:50:00,
2013-05-13 18:55:00,55.2,23.3,30.39,NW,315,0.0,6.4,29,0.00,,,0.00,WUHU216HW,2013-05-13 22:55:00,
2013-05-13 19:00:00,55.0,24.1,30.39,NW,315,6.0,6.0,30,0.00,,,0.00,WUHU216HW,2013-05-13 23:00:00,
2013-05-13 19:05:00,55.0,24.1,30.39,WNW,293,5.3,6.0,30,0.00,,,0.00,WUHU216HW,2013-05-13 23:05:00,
2013-05-13 19:10:00,54.8,24.0,30.40,NW,315,5.3,6.0,30,0.00,,,0.00,WUHU216HW,2013-05-13 23:10:00,
2013-05-13 19:15:00,54.6,23.8,30.40,WNW,293,0.0,5.5,30,0.00,,,0.00,WUHU216HW,2013-05-13 23:15:00,
2013-05-13 19:20:00,54.5,24.4,30.40,NW,315,0.0,5.3,31,0.00,,,0.00,WUHU216HW,2013-05-13 23:20:00,
2013-05-13 19:25:00,54.3,24.2,30.40,NW,315,6.7,6.7,31,0.00,,,0.00,WUHU216HW,2013-05-13 23:25:00,
2013-05-13 19:30:00,54.1,24.1,30.40,WNW,293,0.0,6.7,31,0.00,,,0.00,WUHU216HW,2013-05-13 23:30:00,
2013-05-13 19:35:00,53.9,23.9,30.41,NW,315,4.4,6.7,31,0.00,,,0.00,WUHU216HW,2013-05-13 23:35:00,
2013-05-13 19:40:00,53.4,24.2,30.41,NW,315,1.7,9.3,32,0.00,,,0.00,WUHU216HW,2013-05-13 23:40:00,
2013-05-13 19:45:00,53.2,24.7,30.41,WNW,293,0.0,9.3,33,0.00,,,0.00,WUHU216HW,2013-05-13 23:45:00,
2013-05-13 19:50:00,52.8,24.4,30.42,WNW,293,7.1,7.1,33,0.00,,,0.00,WUHU216HW,2013-05-13 23:50:00,
2013-05-13 19:55:00,52.5,24.0,30.42,NNW,338,6.4,7.1,33,0.00,,,0.00,WUHU216HW,2013-05-13 23:55:00,
2013-05-13 20:00:00,52.3,24.6,30.42,NW,315,0.0,6.9,34,0.00,,,0.00,WUHU216HW,2013-05-14 00:00:00,
2013-05-13 20:05:00,51.9,24.9,30.43,North,0,0.0,6.4,35,0.00,,,0.00,WUHU216HW,2013-05-14 00:05:00,
2013-05-13 20:10:00,51.8,25.4,30.43,NW,315,0.0,7.3,36,0.00,,,0.00,WUHU216HW,2013-05-14 00:10:00,
2013-05-13 20:15:00,51.6,26.0,30.43,NNW,338,5.1,7.3,37,0.00,,,0.00,WUHU216HW,2013-05-14 00:15:00,
2013-05-13 20:20:00,51.4,25.8,30.43,NNW,338,0.0,6.2,37,0.00,,,0.00,WUHU216HW,2013-05-14 00:20:00,
2013-05-13 20:25:00,51.0,26.2,30.43,West,270,8.0,8.0,38,0.00,,,0.00,WUHU216HW,2013-05-14 00:25:00,
2013-05-13 20:31:00,50.9,26.0,30.43,NW,315,6.4,8.0,38,0.00,,,0.00,WUHU216HW,2013-05-14 00:31:00,
2013-05-13 20:36:00,50.7,25.8,30.44,NNW,338,3.3,8.0,38,0.00,,,0.00,WUHU216HW,2013-05-14 00:36:00,
2013-05-13 20:41:00,50.7,27.2,30.44,North,0,6.7,6.7,40,0.00,,,0.00,WUHU216HW,2013-05-14 00:41:00,
2013-05-13 20:46:00,50.7,27.2,30.44,West,270,0.0,6.7,40,0.00,,,0.00,WUHU216HW,2013-05-14 00:46:00,
2013-05-13 20:51:00,50.5,27.0,30.44,NW,315,0.0,6.7,40,0.00,,,0.00,WUHU216HW,2013-05-14 00:51:00,
2013-05-13 20:56:00,50.5,27.6,30.44,NW,315,2.4,6.9,41,0.00,,,0.00,WUHU216HW,2013-05-14 00:56:00,
2013-05-13 21:01:00,50.3,27.4,30.45,NW,315,0.0,6.9,41,0.00,,,0.00,WUHU216HW,2013-05-14 01:01:00,
2013-05-13 21:06:00,50.1,27.3,30.45,WNW,293,0.0,3.3,41,0.00,,,0.00,WUHU216HW,2013-05-14 01:06:00,
2013-05-13 21:11:00,50.1,27.3,30.45,WNW,293,6.0,6.0,41,0.00,,,0.00,WUHU216HW,2013-05-14 01:11:00,
2013-05-13 21:16:00,50.1,27.8,30.46,NW,315,0.0,6.0,42,0.00,,,0.00,WUHU216HW,2013-05-14 01:16:00,
2013-05-13 21:21:00,49.8,27.5,30.46,WNW,293,4.4,6.0,42,0.00,,,0.00,WUHU216HW,2013-05-14 01:21:00,
2013-05-13 21:26:00,49.8,28.0,30.46,WNW,293,0.0,4.4,43,0.00,,,0.00,WUHU216HW,2013-05-14 01:26:00,
2013-05-13 21:31:00,49.8,27.5,30.47,WNW,293,0.0,4.2,42,0.00,,,0.00,WUHU216HW,2013-05-14 01:31:00,
2013-05-13 21:36:00,49.8,28.0,30.47,NW,315,0.0,0.0,43,0.00,,,0.00,WUHU216HW,2013-05-14 01:36:00,
2013-05-13 21:41:00,49.6,27.3,30.47,NW,315,0.0,4.4,42,0.00,,,0.00,WUHU216HW,2013-05-14 01:41:00,
2013-05-13 21:46:00,49.6,27.3,30.47,NW,315,0.0,4.4,42,0.00,,,0.00,WUHU216HW,2013-05-14 01:46:00,
2013-05-13 21:51:00,49.6,27.9,30.47,NW,315,0.0,0.0,43,0.00,,,0.00,WUHU216HW,2013-05-14 01:51:00,
2013-05-13 21:56:00,49.6,27.9,30.48,WNW,293,6.9,6.9,43,0.00,,,0.00,WUHU216HW,2013-05-14 01:56:00,
2013-05-13 22:01:00,49.4,27.7,30.48,NW,315,2.4,6.9,43,0.00,,,0.00,WUHU216HW,2013-05-14 02:01:00,
2013-05-13 22:06:00,49.2,27.5,30.48,NW,315,0.0,6.9,43,0.00,,,0.00,WUHU216HW,2013-05-14 02:06:00,
2013-05-13 22:11:00,49.2,28.1,30.48,WNW,293,2.4,2.4,44,0.00,,,0.00,WUHU216HW,2013-05-14 02:11:00,
2013-05-13 22:16:00,49.2,28.1,30.48,NW,315,8.0,8.0,44,0.00,,,0.00,WUHU216HW,2013-05-14 02:16:00,
2013-05-13 22:21:00,49.1,28.5,30.48,NW,315,4.4,8.0,45,0.00,,,0.00,WUHU216HW,2013-05-14 02:21:00,
2013-05-13 22:26:00,48.9,28.9,30.48,NW,315,0.0,6.4,46,0.00,,,0.00,WUHU216HW,2013-05-14 02:26:00,
2013-05-13 22:31:00,48.9,28.9,30.48,NNW,338,0.0,6.4,46,0.00,,,0.00,WUHU216HW,2013-05-14 02:31:00,
2013-05-13 22:36:00,48.7,28.7,30.49,NW,315,0.0,0.0,46,0.00,,,0.00,WUHU216HW,2013-05-14 02:36:00,
2013-05-13 22:41:00,48.7,29.2,30.48,WNW,293,5.1,5.1,47,0.00,,,0.00,WUHU216HW,2013-05-14 02:41:00,
2013-05-13 22:46:00,48.7,29.2,30.49,WNW,293,0.0,5.1,47,0.00,,,0.00,WUHU216HW,2013-05-14 02:46:00,
2013-05-13 22:51:00,48.5,29.6,30.49,WNW,293,0.0,0.0,48,0.00,,,0.00,WUHU216HW,2013-05-14 02:51:00,
2013-05-13 22:56:00,48.3,28.9,30.48,WNW,293,0.0,0.0,47,0.00,,,0.00,WUHU216HW,2013-05-14 02:56:00,
2013-05-13 23:01:00,48.2,28.7,30.48,WNW,293,5.5,5.5,48,0.00,,,0.00,WUHU216HW,2013-05-14 03:01:00,
2013-05-13 23:06:00,48.2,29.3,30.48,NNW,338,0.0,5.5,48,0.00,,,0.00,WUHU216HW,2013-05-14 03:06:00,
2013-05-13 23:11:00,48.0,29.6,30.48,NW,315,0.0,6.0,49,0.00,,,0.00,WUHU216HW,2013-05-14 03:11:00,
2013-05-13 23:16:00,48.0,29.6,30.48,WNW,293,0.0,6.0,49,0.00,,,0.00,WUHU216HW,2013-05-14 03:16:00,
2013-05-13 23:21:00,47.8,30.0,30.48,NW,315,4.4,4.4,50,0.00,,,0.00,WUHU216HW,2013-05-14 03:21:00,
2013-05-13 23:26:00,47.8,30.5,30.47,NW,315,0.0,4.4,51,0.00,,,0.00,WUHU216HW,2013-05-14 03:26:00,
2013-05-13 23:31:00,47.6,30.3,30.48,NW,315,0.0,4.4,51,0.00,,,0.00,WUHU216HW,2013-05-14 03:31:00,
2013-05-13 23:36:00,47.4,30.1,30.48,WNW,293,0.0,0.0,51,0.00,,,0.00,WUHU216HW,2013-05-14 03:36:00,
2013-05-13 23:41:00,47.4,30.1,30.48,NW,315,0.0,0.0,51,0.00,,,0.00,WUHU216HW,2013-05-14 03:41:00,
2013-05-13 23:46:00,47.3,30.4,30.48,NW,315,0.0,5.1,52,0.00,,,0.00,WUHU216HW,2013-05-14 03:46:00,
2013-05-13 23:51:00,47.1,30.3,30.48,NW,315,0.0,5.1,52,0.00,,,0.00,WUHU216HW,2013-05-14 03:51:00,
2013-05-13 23:56:00,47.1,30.7,30.49,WNW,293,0.0,4.9,53,0.00,,,0.00,WUHU216HW,2013-05-14 03:56:00,